Location: Franzen
(48.6167°N, 15.3833°E)
Time: 12:22:29
(UTC+00:00)

IRIDIUM 106 - Pass Details

Date: 22 April 2021
Orbit: 776 x 779 km, 86.4° (Epoch: 16 May)

Event Time Altitude Azimuth Distance (km) Brightness Sun altitude
Rises 18:59:53 0° 170° (S) 3,249 7.2 -9.7°
Reaches altitude 10° 19:02:15 10° 167° (SSE) 2,326 6.4 -10.0°
Maximum altitude 19:07:21 59° 89° (E) 898 4.4 -10.7°
Drops below altitude 10° 19:12:30 10° 11° (N) 2,342 7.1 -11.4°
Sets 19:14:53 0° 7° (N) 3,274 8.0 -11.7°
